RH
55 66 70 67 32 26 36 34 36 43 35 32 37 42 49 67 74 68 60 65 74 76 89 78 83 95 40 42 51 54 47 36 30 27 35 65 87 90 98 96 96 99 94
90 96 95 64 22 44 49 39 25 44 45 43 40 44 52 51 46 56 77 72 71 83 94 82 40 62 60 43 40 32 31 44 43 42 32 22 34 72 92 96 99 96 98
41 94 88 24 47 49 52 65 41 24 30 51 43 31 26 33 41 46 58 60 76 81 62 48 22 65 60 50 40 38 41 51 55 48 55 58 40 31 77 96 99 92 96
26 50 40 32 26 30 37 42 57 59 31 24 23 21 30 27 37 35 42 75 82 55 52 29 17 59 53 43 47 58 65 70 67 57 53 50 51 52 45 85 92 94 89
49 40 30 20 14 18 22 39 62 90 77 33 27 22 24 41 44 33 34 53 70 72 52 15 27 64 48 50 55 61 63 66 66 66 70 67 57 60 46 49 52 63 45
46 73 71 32 26 23 20 19 34 22 20 31 48 42 44 38 42 47 46 48 44 45 22 24 28 17 17 28 45 49 52 58 66 75 70 72 72 61 35 30 30 30 30
42 48 52 70 73 40 45 37 39 35 42 24 29 30 38 28 30 29 28 31 28 16 20 26 26 9 8 11 16 28 37 41 56 55 61 55 75 78 77 79 66 46 37
68 54 72 71 77 70 82 86 76 59 33 41 25 24 43 41 33 25 16 12 13 14 13 12 17 10 7 6 8 10 12 14 24 33 36 34 50 68 85 70 56 47 35
62 75 73 72 83 96 81 65 67 55 62 37 36 42 43 34 38 36 35 10 10 11 11 10 10 13 14 10 8 7 8 6 7 10 11 16 29 38 50 60 53 46 42
35 73 89 82 62 62 61 53 53 54 64 63 53 40 31 30 20 15 26 29 20 12 9 15 10 10 13 18 15 10 7 7 6 16 17 15 16 22 43 58 64 58 59
16 37 72 78 87 63 59 61 44 49 42 39 41 53 54 76 64 56 42 48 38 29 30 44 38 24 16 14 20 24 22 23 21 18 35 24 30 36 33 42 57 54 46
19 26 28 27 31 54 53 48 38 39 38 35 38 34 29 36 74 69 70 66 82 92 88 78 77 82 84 58 34 30 43 28 24 36 46 66 69 63 72 71 54 36 38
6 6 7 23 44 44 26 22 17 19 26 20 28 35 33 29 34 71 65 55 67 87 78 98 88 71 67 71 92 91 78 72 36 36 52 78 92 91 77 86 85 69 70
6 5 5 5 7 20 36 35 30 29 26 18 13 13 23 28 31 34 40 52 50 57 74 37 34 29 32 69 83 94 96 91 96 90 73 85 96 89 97 97 94 85 92
8 8 7 6 4 4 8 23 31 35 26 27 19 13 12 16 13 18 20 20 24 31 39 36 20 21 49 56 67 94 96 98 97 96 90 95 96 88 89 98 98 95 81
10 10 11 13 22 19 12 10 14 18 26 26 23 16 14 13 6 4 6 8 19 33 27 20 12 14 53 69 74 94 96 96 96 98 97 98 95 94 89 89 81 52 35
12 8 8 11 16 37 26 12 8 12 20 24 20 17 14 8 5 4 5 8 22 25 29 20 12 14 50 54 52 46 72 76 87 96 98 98 88 72 63 55 46 39 39
10 7 9 16 10 22 21 16 15 11 11 26 28 18 16 10 7 5 4 10 25 28 33 34 21 15 41 45 46 52 67 86 93 100 95 92 84 71 63 60 60 61 60
16 20 57 55 42 26 20 23 20 20 12 14 29 22 21 13 8 7 5 5 15 24 34 31 20 21 36 41 43 57 59 82 98 96 90 83 76 75 73 65 56 48 42
36 60 71 55 43 38 34 18 19 25 24 15 22 25 23 20 12 8 7 9 24 21 26 29 25 26 36 49 54 39 69 96 99 98 93 87 80 64 52 47 46 46 49
66 68 71 75 58 58 80 70 37 45 39 27 15 23 22 21 13 7 9 13 27 24 23 27 31 31 40 62 50 46 73 99 94 84 70 63 55 50 49 49 48 58 60
54 77 88 67 61 75 70 71 49 47 50 40 15 21 17 14 7 8 11 19 36 39 46 50 53 31 48 40 48 92 99 78 65 57 54 51 48 46 43 47 52 64 47
58 90 96 96 72 79 98 85 69 68 63 36 14 18 13 9 6 12 12 25 33 38 71 82 47 25 31 50 93 96 70 59 61 58 46 48 54 56 60 65 55 33 26
95 96 96 96 90 66 86 86 82 69 34 16 13 14 10 7 10 16 16 29 47 56 48 36 42 51 61 93 87 56 61 70 61 53 48 56 64 66 37 22 35 37 26
96 96 96 97 97 61 86 87 62 29 22 19 11 9 8 8 16 27 38 40 47 43 63 83 73 92 88 68 63 67 70 61 55 58 51 42 30 31 40 36 26 22 18
97 96 96 96 79 49 66 52 28 24 24 17 8 9 8 20 32 46 50 38 75 98 72 83 94 97 91 91 83 64 59 60 64 42 32 40 39 29 23 19 14 9 5
Wind_Speed
29 25 24 20 21 20 14 9 9 13 18 20 18 18 17 18 19 18 16 14 14 12 12 9 9 9 10 14 13 10 11 12 14 16 15 12 16 18 17 18 18 11 13
31 32 25 22 18 18 19 10 10 11 13 18 19 19 18 19 19 19 19 15 16 11 7 7 7 6 7 4 4 6 8 8 11 15 19 19 15 13 15 13 18 20 16
31 14 19 19 18 18 16 12 10 10 10 14 17 18 16 15 14 16 17 16 15 10 8 8 8 7 4 2 3 3 3 4 6 10 13 14 16 14 10 11 22 22 16
19 12 6 11 10 11 15 14 13 13 13 13 15 15 14 11 11 11 12 15 15 13 10 9 8 8 7 7 6 7 6 5 5 5 6 8 10 7 8 7 14 37 12
20 12 10 6 7 10 14 15 15 16 17 17 16 16 15 13 10 10 11 13 14 13 11 10 9 9 9 10 10 10 9 7 6 6 8 8 10 5 1 4 5 4 6
30 20 16 14 12 11 12 16 15 15 19 21 22 23 18 17 13 13 13 14 15 15 13 11 11 11 11 13 13 13 13 13 12 11 9 8 5 5 1 2 4 6 9
23 22 26 22 23 13 10 15 17 18 20 23 24 23 21 19 16 18 19 19 18 18 15 14 14 13 13 14 14 14 15 14 14 13 11 8 9 6 2 2 3 3 5
23 27 31 31 32 16 14 20 18 24 24 23 26 25 23 21 21 21 22 21 21 21 20 19 18 17 16 17 18 18 18 18 17 17 18 14 13 11 11 11 10 10 11
26 27 34 34 25 24 27 30 30 25 29 26 25 26 25 25 26 26 26 23 22 22 22 21 22 22 24 24 22 23 23 22 20 19 19 21 19 18 15 15 16 17 19
31 26 32 36 36 31 32 31 32 32 31 32 33 30 30 31 30 31 31 28 28 29 29 28 28 28 27 30 28 29 29 30 27 24 24 24 24 26 24 22 23 24 23
32 35 37 39 43 42 45 46 43 40 37 41 40 39 36 37 37 36 35 31 31 33 34 34 36 36 37 37 36 35 35 34 35 34 33 33 32 30 31 31 32 32 31
37 37 41 43 46 52 55 54 52 55 45 43 43 44 43 42 40 39 39 38 36 33 36 38 40 45 48 47 49 48 43 41 40 39 39 38 38 35 34 36 37 38 38
43 43 44 45 48 50 51 51 51 56 53 48 43 42 44 46 43 45 46 45 44 45 38 39 45 49 46 61 55 60 53 48 44 45 39 38 41 40 38 40 38 42 42
47 47 48 51 53 53 52 50 46 47 48 49 45 41 41 41 45 47 49 52 50 51 46 42 45 44 42 42 48 36 50 56 52 49 49 50 41 44 44 44 38 38 43
49 50 52 53 54 57 60 59 55 49 51 52 50 45 39 36 36 46 48 47 52 52 49 47 41 40 41 40 50 34 35 47 56 50 47 40 44 45 49 44 48 41 34
52 49 51 54 58 61 62 63 62 55 54 48 47 47 45 39 34 37 42 43 47 50 48 43 39 39 31 22 27 18 16 22 26 31 39 42 41 35 32 29 28 27 30
55 52 53 53 58 58 59 59 61 57 55 49 47 45 44 40 36 35 36 37 39 43 42 41 38 34 26 23 22 26 17 21 16 22 30 29 28 27 27 29 30 31 35
53 55 56 53 53 55 55 54 53 55 56 51 48 44 44 41 39 37 34 34 34 36 38 39 37 34 31 29 27 24 24 20 23 26 28 27 29 31 33 33 36 36 36
54 54 56 57 57 55 57 54 50 48 47 50 49 46 41 39 38 38 34 34 33 37 37 36 35 36 35 34 29 25 26 30 29 28 29 30 33 35 35 34 35 36 38
48 50 52 53 52 58 58 56 55 54 48 46 48 49 45 41 39 38 36 34 35 36 35 34 35 37 38 35 30 30 27 27 32 32 29 29 32 34 35 36 37 40 42
40 41 41 41 41 43 54 59 58 56 52 45 46 47 49 44 41 38 37 35 33 35 35 35 35 35 35 34 31 29 27 29 29 29 30 32 34 35 38 39 41 42 40
47 43 42 38 39 43 47 51 56 53 49 45 44 48 49 44 40 37 35 35 32 33 33 32 33 33 33 34 31 29 27 26 28 31 34 36 38 39 40 41 44 41 40
53 54 47 42 36 34 37 43 47 50 48 44 44 49 48 42 37 34 34 34 32 31 32 31 31 31 32 30 35 27 27 28 32 36 38 39 40 40 42 39 38 37 40
52 47 43 41 35 31 34 38 39 40 40 41 44 46 42 38 35 34 34 33 33 31 30 28 27 26 29 31 23 26 29 32 36 39 40 40 40 37 36 37 38 39 42
35 33 34 36 37 34 34 38 38 37 37 38 39 35 34 35 35 35 33 33 31 30 27 29 26 30 29 27 28 30 33 35 37 37 34 32 34 35 36 38 41 44 47
23 24 25 25 34 36 37 37 36 34 33 31 29 32 35 36 35 33 32 31 25 29 32 30 32 27 28 27 30 32 35 36 34 32 32 33 34 36 38 42 44 46 48
Wind_Direction
314 285 282 254 259 268 245 221 238 237 234 236 230 231 234 239 241 241 242 242 245 253 236 253 257 268 304 300 287 290 293 303 301 298 297 288 281 274 258 259 268 269 259
310 273 247 220 233 238 248 229 241 244 238 233 233 236 239 243 245 243 240 239 241 247 236 235 270 276 322 330 291 293 303 316 315 307 298 292 290 293 268 246 257 249 255
329 261 177 213 224 238 255 264 261 263 248 235 231 237 240 241 241 241 238 231 228 238 225 255 274 270 298 319 278 267 274 330 344 344 341 332 305 295 306 266 241 235 236
332 338 252 242 253 267 271 272 271 269 259 233 227 233 230 233 240 233 226 210 215 215 233 254 253 253 256 254 261 273 280 299 336 353 360 1 352 305 310 327 268 242 238
326 318 287 263 280 279 272 273 265 264 260 246 230 236 243 244 240 242 225 218 217 229 247 251 249 254 258 258 261 268 269 277 293 322 337 356 15 25 211 323 342 317 289
307 297 272 256 235 234 261 279 274 252 253 253 246 240 243 252 249 244 244 238 234 240 245 246 248 253 260 268 271 273 271 269 278 288 299 321 349 30 58 270 273 270 270
289 283 288 270 216 227 248 263 269 266 254 248 251 248 248 242 243 248 243 245 245 246 249 246 249 254 258 264 269 274 278 277 276 286 286 305 299 291 265 258 266 250 252
279 273 280 283 292 272 278 269 279 265 255 249 249 247 249 248 244 240 244 252 253 252 255 255 256 259 257 257 262 264 263 267 271 279 284 283 276 276 288 292 282 274 274
273 265 266 267 274 271 262 265 260 279 241 248 250 249 248 249 250 248 250 250 252 255 257 259 261 262 260 257 259 265 270 268 271 271 269 277 276 273 272 276 281 281 281
257 250 253 254 253 255 244 261 260 254 248 259 260 246 252 251 252 255 253 252 258 260 262 260 259 262 265 270 268 268 269 271 271 270 272 270 270 275 273 268 270 271 272
257 248 249 253 252 248 249 257 263 257 249 245 253 256 254 253 254 255 258 260 259 263 265 270 271 269 267 266 267 264 264 267 272 272 273 269 266 264 270 272 270 271 270
265 263 260 257 251 247 251 259 256 254 259 255 252 248 250 250 254 254 259 262 263 262 269 283 283 275 276 273 268 264 261 262 263 267 274 271 271 269 270 272 271 272 274
265 263 262 260 260 262 260 257 253 257 260 261 252 249 251 252 254 255 260 263 266 271 272 276 275 296 304 311 279 263 256 256 259 266 264 266 266 265 267 272 276 271 274
266 265 264 262 262 260 258 258 258 260 262 262 262 260 254 251 252 254 256 260 266 266 266 275 280 287 292 290 311 277 255 254 251 255 258 263 263 263 280 277 275 267 279
268 268 268 264 261 260 259 258 256 256 258 257 263 263 261 262 255 254 257 259 261 266 269 272 283 286 298 311 320 286 269 271 259 266 267 262 273 278 278 277 279 280 270
267 267 263 263 263 260 257 254 255 253 251 251 256 262 263 263 260 261 257 260 261 262 265 269 274 277 284 307 312 289 266 260 258 262 260 269 269 280 281 276 268 268 270
264 265 266 265 264 262 258 257 256 257 254 252 253 255 254 256 261 260 254 255 259 261 262 264 264 268 268 273 288 293 299 302 269 265 264 258 268 277 277 273 272 274 277
272 270 271 266 259 256 253 252 254 253 255 251 249 250 250 252 256 259 257 257 257 261 259 258 258 259 259 262 275 275 281 279 266 260 267 270 277 279 277 276 278 279 279
274 270 277 273 264 251 249 248 247 251 253 246 245 243 245 248 251 253 255 257 252 250 252 255 254 255 259 259 268 271 274 277 272 265 266 274 278 278 279 279 280 281 283
273 275 276 267 260 244 241 243 247 246 246 246 241 239 241 243 249 249 249 251 251 247 246 247 250 253 258 261 266 273 273 266 266 267 268 270 272 274 278 281 283 286 288
275 274 276 273 266 251 242 239 239 238 237 241 237 236 237 240 244 244 245 248 250 249 248 247 249 254 262 265 270 269 273 261 264 265 265 265 270 276 279 283 289 292 294
271 271 268 264 264 260 242 231 230 232 234 235 233 231 232 234 237 239 241 244 246 248 251 248 250 257 262 266 271 273 260 254 260 266 269 272 277 283 287 288 290 292 294
274 272 267 256 252 250 236 224 226 226 224 229 229 227 227 228 229 231 237 241 244 243 245 248 251 259 263 265 271 252 252 260 267 272 275 280 284 287 290 293 293 294 294
281 279 269 250 240 240 225 216 212 208 217 220 221 223 225 225 224 227 234 239 243 241 244 245 250 257 268 262 247 249 260 267 272 277 283 288 290 289 290 295 296 296 296
282 275 269 268 230 223 215 204 197 205 213 216 221 220 219 221 221 227 232 236 239 247 246 248 249 256 241 240 250 259 266 274 282 286 287 290 291 294 296 296 298 299 299
287 276 246 227 208 204 192 193 197 205 211 216 217 212 214 217 221 226 227 234 233 225 247 252 252 237 229 250 264 269 278 283 285 284 289 292 294 296 298 299 300 301 304